GFSSE_sfc_temp_198.txt.gz
Temp
67 70 75 76 76 76 76 75 75 75 76 76 76 76 76 76 75 75 76 76 76 77 77 76 76 75 75 75 74 74 74 74 74 74 74 75 75 75 74 73 72 70 74
69 71 73 75 76 76 76 75 75 75 76 76 76 76 76 76 76 76 76 76 76 77 76 76 75 74 74 74 74 73 73 73 72 72 72 73 74 75 73 73 73 72 74
70 72 73 74 75 75 75 75 75 75 75 75 75 75 75 76 76 76 76 75 76 76 76 76 75 74 73 73 73 73 73 72 72 72 70 64 67 74 74 73 73 74 73
71 72 72 72 74 74 74 74 75 75 75 75 75 75 75 75 75 75 75 75 75 76 76 75 75 74 73 72 73 73 72 72 71 70 65 66 69 74 74 73 73 73 72
71 72 71 72 74 74 74 74 74 74 75 75 75 75 75 74 74 74 74 74 74 75 75 75 74 73 72 72 72 72 72 71 69 68 63 63 64 72 73 72 71 71 71
70 71 70 72 74 74 74 74 74 74 74 74 74 74 74 74 73 74 73 73 73 74 74 74 73 72 71 71 71 71 71 70 67 61 62 66 65 73 73 72 71 71 71
68 70 70 71 73 73 74 74 74 74 74 74 74 74 73 73 73 73 73 73 73 73 73 72 72 71 71 70 70 70 70 68 63 61 61 62 64 72 72 72 71 71 71
68 69 70 68 70 71 72 73 73 73 73 73 73 73 73 73 73 73 73 72 72 72 72 72 71 70 70 70 69 69 68 66 64 61 62 62 68 72 73 72 71 71 71
69 68 67 68 67 67 69 70 71 72 72 72 72 72 71 71 71 71 71 72 72 72 71 71 70 70 70 70 69 68 67 66 60 61 65 62 69 73 73 72 72 71 71
67 67 65 66 67 67 67 66 67 69 70 70 70 68 67 68 68 69 68 70 72 72 71 70 70 70 70 69 68 67 66 65 60 61 62 61 69 72 72 72 72 72 72
67 66 65 65 65 66 66 66 64 66 66 66 66 65 64 65 66 66 65 67 70 70 70 70 70 69 68 67 66 66 64 62 61 62 61 65 70 72 72 72 72 72 72
63 64 66 65 65 65 70 65 65 66 65 65 65 65 65 64 65 69 65 64 67 67 68 69 69 68 64 63 66 65 66 67 67 67 66 66 71 72 72 72 72 72 72
65 66 67 66 66 66 68 64 63 64 63 64 64 64 64 66 64 67 67 66 66 62 63 64 67 67 67 66 66 67 67 67 67 68 67 66 70 72 73 73 72 72 72
65 67 68 68 69 68 68 65 64 64 63 63 64 65 63 63 63 63 62 62 65 64 65 65 65 66 66 65 64 64 64 63 63 67 66 63 67 72 75 75 74 73 73
66 68 69 69 68 68 65 64 64 64 64 64 64 65 64 62 62 62 62 62 62 63 64 62 62 66 66 62 62 61 61 65 68 67 67 62 63 69 72 74 74 74 73
69 68 69 68 68 68 66 65 65 64 65 64 64 65 65 64 63 62 62 61 62 63 63 62 62 62 61 60 61 61 61 61 64 68 68 64 63 65 69 71 71 71 72
69 69 67 68 68 67 66 66 65 65 66 65 65 65 66 66 64 63 62 61 61 62 62 61 61 61 60 60 60 60 61 61 61 62 66 65 65 61 65 67 68 69 70
68 67 68 72 69 67 67 67 66 66 65 65 65 65 66 67 66 64 63 62 62 62 61 60 60 59 59 59 59 60 60 60 61 61 64 64 63 61 62 64 65 67 69
67 67 68 67 68 67 66 66 66 66 65 65 65 65 66 66 67 66 64 64 63 62 61 61 60 59 59 59 59 60 60 59 59 61 60 61 59 59 58 58 58 60 65
67 67 69 68 67 66 65 64 64 63 63 64 64 65 66 66 66 64 63 62 62 61 61 60 60 60 59 59 62 62 59 59 59 60 60 61 59 58 56 56 55 55 59
65 65 66 65 65 64 62 62 61 62 62 63 63 64 64 64 64 63 61 61 60 60 60 61 60 59 58 59 56 56 56 57 56 57 59 59 59 58 57 54 52 52 54
65 65 65 65 64 64 62 62 63 62 62 62 62 63 63 62 62 61 60 59 59 58 59 59 59 58 58 58 56 53 50 53 57 58 58 57 55 55 54 53 52 51 49
58 59 62 63 64 63 63 62 60 60 59 58 58 58 60 60 60 60 59 58 58 58 59 59 58 59 58 57 58 56 48 48 54 56 54 54 53 52 51 51 49 48 47
54 55 57 58 60 61 61 60 59 58 57 56 56 56 57 57 57 57 57 57 57 57 58 59 59 59 58 59 57 58 54 53 50 50 51 50 51 51 50 50 48 47 44
52 52 52 55 56 56 56 56 55 54 53 53 54 54 54 54 54 55 54 54 54 55 55 56 56 56 56 58 54 52 52 53 52 50 48 45 48 46 46 46 41 40 41
51 51 51 53 54 54 53 53 53 52 52 51 51 51 51 50 51 51 52 52 52 53 53 54 54 54 55 56 55 53 52 51 50 51 52 48 46 43 41 40 38 38 38

GFSSE_sfc_temp_201.txt.gz
Temp
66 69 74 76 76 76 75 75 75 75 76 76 76 76 76 75 75 75 76 76 76 76 76 76 75 75 75 74 74 73 73 73 73 74 74 75 75 74 74 73 72 69 74
68 70 73 75 76 76 75 75 75 75 76 76 75 76 76 76 76 76 76 76 76 76 76 75 75 75 74 74 73 73 72 72 72 71 71 71 73 74 73 73 74 72 74
68 71 72 74 75 75 75 75 75 75 75 75 75 75 76 76 76 76 75 75 76 76 76 76 74 74 73 73 73 73 72 72 72 71 70 63 65 74 74 73 72 73 73
70 70 70 72 74 75 74 74 74 75 75 75 75 75 75 75 74 75 75 75 75 76 76 75 75 73 73 72 72 72 72 72 71 69 63 64 67 73 73 72 72 72 72
69 70 70 72 74 74 74 74 74 74 74 75 74 75 75 74 74 74 74 74 74 75 75 75 73 72 72 72 72 72 71 70 69 66 62 62 62 71 72 71 70 70 71
68 69 69 72 74 74 74 74 74 74 74 74 74 74 74 73 73 73 73 73 73 73 74 73 72 71 71 71 71 71 70 69 66 60 60 65 64 73 72 72 71 70 70
67 68 69 71 72 73 73 74 73 73 74 74 74 73 73 73 73 73 72 73 72 72 72 72 71 70 70 70 70 70 69 68 61 60 60 61 63 72 72 71 71 71 71
67 68 69 67 70 71 72 73 73 73 73 73 73 73 73 72 72 72 72 72 72 72 72 71 70 70 70 70 70 69 68 66 63 60 60 60 65 72 73 72 71 71 71
68 67 67 68 67 67 69 70 71 72 72 72 72 72 71 71 71 71 71 72 72 71 71 70 70 70 70 70 69 68 66 65 59 60 63 60 66 72 73 72 72 71 71
66 66 66 66 67 67 66 66 67 69 70 70 69 68 67 67 68 68 67 69 71 71 71 70 70 70 70 69 68 67 65 65 60 60 60 60 67 72 73 73 72 72 72
65 65 64 64 65 65 66 65 64 66 66 66 66 65 64 64 65 65 64 66 70 70 70 70 70 69 68 66 66 65 64 61 60 61 60 64 68 72 73 72 72 72 72
62 63 64 64 64 64 69 65 64 65 64 65 64 64 64 63 63 66 62 63 66 67 68 69 69 67 64 63 65 65 66 67 66 66 66 66 69 72 73 73 72 72 72
63 63 64 64 64 64 65 63 63 63 62 63 63 63 63 64 62 63 62 62 61 61 62 65 63 66 64 66 66 66 67 66 66 67 67 66 70 72 73 74 73 73 72
62 64 65 65 64 64 64 63 62 62 62 61 62 63 62 61 61 61 61 61 60 61 60 61 61 63 66 64 63 63 62 61 61 62 65 63 66 71 73 75 75 74 74
63 64 64 64 64 65 64 63 62 62 62 63 63 64 63 62 61 61 61 60 60 61 61 60 60 61 61 61 61 60 60 61 63 65 66 62 63 68 72 74 74 74 74
65 65 66 65 65 65 64 63 63 63 63 63 63 63 64 63 61 61 60 60 60 61 61 61 60 60 60 59 60 60 59 60 60 61 62 65 63 65 68 71 73 72 72
66 67 65 66 67 65 65 64 63 63 64 63 63 64 64 64 63 62 61 60 60 60 61 60 59 59 58 59 59 59 60 60 60 60 61 62 64 61 65 68 69 71 72
65 65 66 70 66 65 64 64 64 64 63 63 63 63 64 64 64 63 61 61 61 60 60 59 58 58 57 58 58 59 59 59 60 60 60 60 61 62 61 64 66 68 69
66 66 65 65 65 65 64 64 64 64 63 64 63 63 64 64 65 64 63 64 62 61 60 59 59 58 57 58 58 59 59 61 60 60 59 59 58 57 58 59 59 61 65
65 65 65 66 65 65 64 63 62 63 62 63 62 63 64 64 64 64 63 62 62 60 60 59 58 59 58 59 60 60 58 58 57 56 57 59 59 56 56 55 53 56 60
63 63 64 63 64 63 61 61 61 62 63 62 62 63 64 63 63 62 62 61 61 60 60 59 59 58 59 57 58 58 55 58 58 59 59 58 58 56 55 52 52 53 54
61 61 62 62 63 62 62 61 62 61 61 61 61 62 62 62 61 60 59 59 59 57 57 57 57 58 57 56 56 53 51 52 57 58 57 56 55 55 54 53 52 51 51
55 57 61 62 62 62 62 61 60 59 59 58 58 58 59 59 59 59 58 57 57 56 56 56 56 56 57 56 55 54 49 48 54 55 53 53 53 52 51 51 50 49 49
54 55 56 57 58 58 57 58 57 56 55 54 54 54 55 55 55 56 56 55 55 55 55 56 57 56 56 57 54 57 53 54 50 50 51 50 50 50 50 49 48 48 47
52 51 52 53 53 53 53 53 52 51 51 51 51 52 52 52 53 53 53 53 52 53 53 53 54 54 56 57 54 53 52 52 53 51 48 45 48 46 48 47 43 42 42
51 50 50 51 51 51 51 51 50 49 49 48 48 49 49 49 50 51 51 50 51 51 51 52 52 53 54 55 55 55 56 53 54 52 50 47 47 44 45 43 40 38 38

GFSSE_sfc_temp_207.txt.gz
Temp
69 74 74 76 76 76 75 76 76 76 76 77 77 77 77 76 76 76 76 76 75 76 76 76 75 75 75 74 74 73 73 73 72 72 74 74 75 75 75 74 73 75 74
71 74 73 75 75 75 75 75 75 75 76 77 76 76 76 76 76 76 76 76 77 76 76 75 75 74 74 73 73 73 72 72 72 71 71 71 73 74 73 73 74 75 73
71 74 75 74 74 75 75 75 75 75 75 76 76 76 76 76 76 76 76 76 76 76 76 75 74 74 73 73 73 73 73 72 71 70 69 73 74 74 73 73 72 73 73
72 73 74 72 74 74 74 74 74 74 75 75 75 76 76 75 76 76 75 76 75 75 75 74 74 73 72 72 72 72 72 71 70 68 71 72 73 73 73 73 72 72 72
71 72 73 72 74 74 74 74 74 74 74 75 75 75 76 76 75 74 74 74 75 75 74 74 73 72 72 72 72 71 71 70 68 69 71 71 72 74 73 72 71 71 70
70 72 71 72 74 74 74 74 74 74 74 74 74 74 75 75 73 73 73 73 73 73 75 73 72 72 71 71 71 71 70 69 67 71 71 70 71 71 74 72 72 71 71
69 71 73 71 73 73 74 73 73 73 74 73 73 73 73 73 72 73 72 72 72 72 72 72 71 71 71 71 71 70 69 67 70 70 70 70 70 70 73 74 72 72 71
69 70 71 68 70 71 72 72 72 73 73 73 73 73 72 72 72 72 72 72 72 72 72 71 71 71 70 70 70 69 67 66 69 70 69 70 67 70 73 74 73 72 72
70 70 70 71 70 67 69 69 70 71 72 72 72 72 71 71 71 71 71 71 71 71 71 71 70 70 70 70 70 68 66 65 71 70 69 71 67 70 73 74 73 73 73
69 69 69 70 70 71 71 66 67 68 69 70 69 68 67 67 68 68 67 69 71 71 71 70 70 70 70 69 68 67 65 65 72 70 71 72 67 71 73 74 73 73 72
68 68 68 69 69 70 70 67 65 65 66 66 66 64 65 70 69 69 65 66 69 70 70 70 70 69 68 66 65 65 64 71 69 68 69 66 69 72 74 74 73 73 73
65 66 67 68 68 68 70 69 69 69 70 70 69 69 69 69 69 68 64 62 64 64 67 69 69 67 66 71 72 67 74 73 73 73 74 67 70 72 74 74 73 73 74
67 67 66 67 68 68 69 68 68 68 68 69 68 68 68 68 68 69 68 69 68 63 69 69 69 70 69 70 71 71 71 72 72 72 70 65 70 72 74 74 74 74 74
65 66 66 67 67 67 68 68 68 67 67 67 68 67 67 67 67 67 67 68 67 68 67 68 68 68 68 69 69 69 70 70 71 71 70 61 65 70 73 74 75 75 75
63 65 66 66 66 67 66 67 67 67 67 68 67 67 68 67 66 67 67 67 67 68 67 68 68 68 67 68 68 67 68 69 69 70 70 60 62 67 70 72 73 75 75
65 65 66 66 66 67 66 66 67 67 67 67 67 68 68 68 67 67 67 67 67 68 68 68 68 68 68 67 67 67 67 68 68 68 70 70 61 64 67 70 72 73 74
66 66 66 66 67 66 66 67 67 67 67 67 68 68 68 68 68 68 67 67 68 68 66 66 67 66 66 66 65 67 67 68 68 68 69 69 67 61 63 67 69 71 73
66 66 66 68 67 66 67 67 68 68 68 68 68 69 68 68 69 68 68 68 69 68 67 67 66 66 65 65 66 67 67 67 67 67 67 68 68 68 64 64 66 69 70
66 67 66 67 67 67 67 67 67 68 68 68 68 68 68 68 68 67 67 68 68 67 67 66 64 61 61 62 65 66 65 65 66 67 67 67 67 66 67 62 60 61 65
66 66 67 66 67 67 67 67 67 67 67 68 67 67 67 67 67 66 64 64 64 63 63 64 63 64 62 64 63 64 65 66 66 66 65 65 65 65 64 61 63 63 62
64 65 65 65 66 66 65 65 65 66 66 65 65 66 66 66 63 63 64 64 64 63 63 64 63 62 63 63 59 62 64 66 65 64 63 63 62 62 60 59 59 59 61
57 59 60 63 63 64 64 64 65 64 64 63 63 62 60 60 60 61 60 60 60 60 60 60 60 59 60 62 59 59 56 62 63 62 62 62 62 61 60 58 57 56 56
53 54 56 57 57 58 61 62 62 64 63 60 59 57 57 57 57 57 58 58 58 58 57 58 58 58 56 60 60 56 53 52 56 61 59 59 59 57 58 57 54 55 53
52 53 55 55 56 57 58 58 58 58 56 55 54 54 54 55 56 56 56 55 56 56 56 56 58 57 57 56 58 60 59 57 52 51 54 55 57 56 57 56 55 54 54
52 52 53 54 54 53 53 53 54 52 52 53 52 51 52 53 53 54 54 54 54 54 54 54 54 54 55 54 54 54 57 58 57 52 51 57 52 54 55 55 55 54 53
53 52 53 52 51 51 50 50 50 50 50 50 49 49 50 51 51 51 51 51 52 52 52 52 52 52 52 53 53 53 52 52 54 52 52 54 54 55 53 53 51 48 50

GFSSE_sfc_temp_210.txt.gz
Temp
78 81 74 76 76 76 76 76 76 76 75 77 77 76 76 76 75 76 76 76 76 76 76 76 76 75 75 74 73 73 73 72 72 72 73 74 75 75 74 73 74 78 74
81 82 73 75 76 75 76 75 75 76 76 76 76 76 76 76 75 76 76 76 76 76 75 75 75 74 74 73 73 73 73 72 71 71 71 74 74 74 73 73 72 75 73
80 81 79 74 75 75 75 75 75 75 76 77 76 76 76 76 76 76 76 76 76 76 75 75 74 74 73 73 73 73 72 71 70 70 71 78 78 74 73 73 72 72 72
81 82 81 72 74 75 74 74 74 75 75 75 76 76 76 76 76 75 76 75 75 75 75 74 74 73 72 72 72 72 71 70 69 70 78 78 79 73 73 72 72 72 71
80 82 79 72 74 74 74 74 74 74 75 75 75 76 76 75 74 74 74 75 75 75 74 74 73 72 72 72 72 71 71 70 68 74 77 77 78 76 74 72 73 72 71
80 80 73 72 74 74 74 74 74 74 74 74 75 75 75 74 73 73 73 73 73 74 73 73 72 71 71 71 71 71 70 69 69 78 78 76 77 71 74 73 72 71 71
79 80 78 72 73 73 73 73 73 74 74 74 73 74 74 73 73 73 73 73 73 73 72 72 71 71 71 71 70 70 69 68 76 77 77 76 76 70 73 74 74 72 72
79 79 78 69 70 72 72 73 73 73 73 73 73 73 73 72 72 72 72 72 72 72 72 71 71 71 70 70 70 69 67 67 76 77 76 77 70 70 73 73 73 73 73
80 78 79 79 73 67 69 70 71 72 72 72 72 72 71 71 71 71 70 71 72 71 71 71 70 70 70 70 69 68 67 66 78 78 77 79 68 71 73 74 73 73 73
78 79 78 79 78 78 77 66 67 69 70 70 69 68 67 68 68 68 67 69 71 71 71 70 70 70 70 69 69 68 66 66 79 78 79 79 68 71 73 74 74 73 73
76 77 78 78 78 78 78 72 66 66 67 67 68 65 67 78 77 74 66 66 69 69 70 70 70 69 68 67 67 65 63 79 79 79 80 69 69 72 74 74 73 73 73
71 74 77 77 77 77 77 77 77 76 77 77 77 76 78 76 76 72 66 63 65 65 67 68 69 67 66 78 79 70 79 79 79 79 80 68 70 73 74 74 74 74 74
73 72 74 77 77 77 77 77 78 78 78 78 76 76 76 77 77 78 77 78 77 67 77 76 76 78 76 77 77 78 78 78 79 79 76 66 69 71 73 74 74 74 74
69 70 71 76 76 76 78 77 78 77 77 77 77 76 76 76 76 76 77 77 76 78 76 76 77 76 75 76 76 76 76 77 78 78 76 64 65 69 72 73 74 74 74
68 69 70 75 76 76 75 77 77 77 77 78 77 76 77 76 75 76 77 77 77 77 77 76 76 76 75 75 76 75 75 76 76 77 77 64 63 66 70 72 73 74 74
72 74 76 75 76 77 76 76 77 77 78 77 77 77 76 76 76 76 76 76 77 77 77 76 76 75 75 75 74 75 75 76 76 76 77 77 64 65 67 70 71 72 73
75 76 75 76 76 75 76 76 77 77 77 77 77 77 76 76 77 76 76 76 77 77 75 76 75 75 74 75 74 75 75 75 76 76 77 77 76 63 63 66 69 70 72
77 75 76 75 75 76 76 77 77 78 78 78 78 78 76 76 76 76 76 76 77 74 74 74 73 71 70 70 68 69 73 75 75 75 76 76 76 76 69 64 65 67 69
77 77 76 76 76 76 76 77 77 76 77 78 78 77 76 75 75 75 75 72 72 70 71 68 68 69 68 71 71 73 74 74 74 75 74 75 75 74 74 68 61 60 63
77 77 77 76 76 76 76 76 77 76 77 78 75 74 73 74 73 72 70 69 71 70 71 70 69 71 69 69 69 70 72 73 74 74 74 74 73 72 73 71 69 68 60
72 74 74 74 75 75 74 73 73 75 73 68 68 68 68 68 66 68 70 69 69 68 68 68 68 67 68 70 66 69 70 73 73 73 73 72 72 70 69 68 67 67 66
69 69 70 70 70 71 72 72 74 72 65 64 64 62 60 62 65 66 65 65 66 66 66 66 65 64 66 68 62 60 61 66 73 71 72 70 70 70 68 68 67 65 65
64 64 65 65 66 66 67 70 69 64 62 61 60 59 60 63 63 63 64 63 64 64 63 63 63 62 58 63 65 57 56 57 60 67 68 70 68 67 68 67 65 63 62
59 61 62 62 62 62 64 61 60 59 54 54 56 60 61 60 60 60 61 61 61 62 61 61 62 61 60 58 61 64 59 56 52 51 60 61 64 62 65 66 64 63 62
56 56 57 57 56 57 57 59 57 56 53 54 55 57 57 58 58 58 58 58 58 59 58 58 58 58 59 58 58 56 56 58 59 54 50 56 59 58 63 60 61 63 62
54 53 54 52 51 53 53 54 51 50 52 51 52 53 54 55 54 53 56 56 57 56 55 55 56 55 55 55 55 54 53 51 51 51 50 53 52 58 63 58 58 59 61

GFSSE_sfc_temp_216.txt.gz
Temp
73 73 74 76 76 76 76 76 76 76 76 76 76 76 76 76 76 76 76 76 76 76 76 76 75 75 74 74 73 73 72 72 72 73 75 74 74 74 74 73 73 72 74
75 75 73 75 76 76 75 75 75 75 76 76 76 76 75 76 76 76 75 75 75 76 76 75 75 74 74 73 73 72 72 72 71 72 72 74 74 74 73 72 72 71 73
76 75 74 74 75 75 75 75 75 75 76 77 76 76 76 76 76 76 75 75 75 75 75 75 74 73 73 72 72 72 72 71 71 71 71 67 68 74 73 72 72 72 73
77 76 75 72 74 74 74 74 74 75 75 75 75 75 75 75 75 75 75 75 75 75 75 74 73 73 72 72 72 72 71 71 71 70 69 72 73 74 74 73 73 72 72
77 77 73 72 74 74 74 74 74 74 75 75 75 75 74 74 74 74 74 75 75 74 74 73 73 72 72 72 71 71 71 71 70 69 68 68 66 74 74 74 72 72 71
77 73 71 72 74 74 74 74 74 74 74 75 74 74 74 73 73 73 73 73 73 73 73 73 72 72 71 71 71 71 70 70 69 65 68 70 68 73 73 74 74 73 71
75 72 72 71 73 73 73 73 73 73 73 73 74 73 73 73 73 72 72 72 72 72 72 72 71 71 71 70 70 70 69 69 67 66 68 68 67 72 73 74 74 73 73
74 73 72 68 70 71 72 72 72 73 72 72 73 72 72 72 72 72 72 72 72 72 72 71 71 70 70 70 70 70 68 67 68 71 69 68 70 72 73 74 74 74 73
75 74 71 71 68 68 69 69 70 71 71 71 71 71 70 70 70 70 70 71 71 71 71 71 70 70 70 70 70 69 67 66 62 67 73 67 70 74 74 74 74 74 74
73 74 74 71 70 69 67 66 67 68 69 69 68 67 67 67 68 68 68 69 70 70 70 70 70 70 70 69 69 68 66 65 63 66 69 67 72 73 74 74 74 74 74
73 75 75 71 73 72 69 65 64 66 66 66 66 65 65 67 68 66 65 67 69 69 69 69 70 69 68 67 66 66 64 65 67 68 68 69 72 74 74 74 74 74 74
68 71 72 70 73 72 76 67 68 69 67 69 70 66 68 71 68 69 63 65 66 66 68 69 69 68 65 65 67 65 65 68 69 68 69 69 72 74 74 74 74 74 74
70 71 72 73 72 71 70 68 68 68 71 71 71 70 70 70 66 66 66 65 64 59 66 66 67 66 68 68 68 68 68 68 66 68 70 68 72 74 74 74 74 74 73
70 73 71 73 73 73 70 69 70 69 69 68 69 71 67 66 66 67 67 67 67 66 67 68 68 69 69 71 71 69 69 67 67 67 67 65 68 72 74 74 74 73 73
69 68 69 71 71 72 73 70 70 69 68 69 69 70 69 67 66 67 68 68 70 72 71 71 70 70 69 69 69 68 70 70 71 70 67 64 64 70 73 74 74 74 74
70 68 69 69 72 72 70 71 69 69 70 70 69 69 71 69 69 71 70 71 70 70 70 66 66 66 65 66 66 67 67 66 68 71 72 71 66 67 70 73 74 74 73
70 71 69 70 72 71 71 70 69 70 71 69 69 71 72 74 72 71 69 68 68 66 66 66 66 67 65 68 64 66 66 69 71 70 72 68 66 65 65 69 72 72 72
70 71 72 75 72 71 70 70 70 70 69 69 73 72 72 72 71 69 68 67 68 66 67 67 67 67 63 61 62 63 63 65 66 66 66 66 66 67 65 67 67 69 69
76 74 71 71 70 70 70 70 70 72 73 68 68 68 69 68 68 67 66 65 64 63 63 63 61 60 59 60 63 62 62 63 63 67 65 66 65 66 64 64 62 61 63
74 74 74 72 71 71 70 70 73 68 63 63 63 63 65 65 64 62 62 62 62 60 59 59 58 59 58 58 63 62 61 61 62 61 61 65 64 64 63 63 61 61 62
74 74 74 73 74 72 71 69 68 59 59 59 61 62 62 62 60 60 59 59 59 59 58 59 57 56 56 58 54 57 56 59 59 59 61 60 61 62 62 61 59 59 59
68 68 68 68 69 68 66 63 60 57 56 58 59 59 59 58 59 61 58 56 57 57 56 55 54 53 54 56 51 50 48 55 57 60 58 60 59 59 60 61 60 60 58
58 58 60 60 59 60 62 59 57 57 56 56 56 55 54 55 56 56 56 56 56 55 53 54 52 52 51 54 56 52 45 44 49 54 57 56 59 59 58 60 60 60 59
51 54 54 54 56 57 56 55 54 52 51 54 53 53 52 52 52 53 53 53 52 52 50 51 52 51 51 49 51 54 49 47 43 43 50 53 54 55 56 56 57 58 58
50 50 51 51 51 52 54 54 52 50 50 52 51 49 49 50 49 50 50 50 49 49 48 48 47 47 46 47 46 46 47 46 47 41 41 43 48 50 53 53 53 54 56
50 49 49 48 47 49 49 50 49 48 47 46 46 45 45 46 46 46 48 48 48 47 47 46 46 45 44 45 45 44 43 41 41 40 38 39 40 44 47 49 51 52 53

GFSSE_sfc_temp_219.txt.gz
Temp
67 71 74 76 76 76 76 76 76 76 76 76 76 76 76 76 76 75 75 76 76 76 76 76 76 75 74 74 73 73 73 72 72 73 74 74 74 74 74 73 72 70 73
70 72 73 75 76 75 75 75 75 75 76 76 76 76 76 76 75 75 75 75 75 76 76 75 75 75 74 73 72 72 72 72 72 72 72 72 74 74 73 72 72 71 73
71 72 73 74 75 75 75 75 75 75 76 76 76 76 76 76 75 75 76 76 75 75 75 75 74 73 72 72 72 72 72 72 71 71 71 65 68 74 74 73 73 73 73
72 72 73 72 74 74 74 74 74 75 75 75 76 76 75 75 75 75 75 74 75 75 74 74 73 73 72 72 72 72 72 71 71 70 66 68 71 75 75 74 73 73 72
71 72 71 72 74 74 74 74 74 75 75 75 75 75 74 74 74 74 75 74 74 74 74 73 73 72 72 71 71 71 71 71 70 68 65 65 65 73 74 74 73 72 71
70 71 70 72 73 74 74 74 74 74 74 74 74 74 74 73 73 73 73 73 73 73 73 73 72 71 71 71 71 71 71 70 69 63 64 68 66 74 74 74 73 73 72
68 69 71 71 72 73 73 73 73 73 74 73 73 73 73 73 73 72 72 72 72 72 72 72 71 71 71 70 70 70 70 69 65 64 65 65 66 73 74 74 74 73 73
68 69 71 67 69 71 72 72 72 72 72 73 72 72 72 72 72 72 72 72 72 72 71 71 71 70 70 70 70 70 68 67 66 63 65 65 69 73 74 74 74 74 74
69 68 68 68 67 67 68 69 70 71 71 71 71 71 70 70 70 70 70 71 71 71 71 71 70 70 70 70 70 69 67 66 62 63 67 65 70 74 75 74 74 74 74
68 68 66 66 67 65 65 65 66 68 68 68 68 67 66 67 68 68 67 69 70 70 70 70 70 70 70 70 69 67 65 64 63 64 64 65 71 74 75 74 74 74 74
69 69 68 67 66 66 65 64 64 65 65 65 65 65 64 65 66 66 65 67 69 69 69 70 70 69 68 66 66 65 64 63 63 64 65 67 72 74 75 74 74 74 73
68 71 71 68 68 67 71 63 64 66 65 65 65 65 66 65 66 67 62 64 66 66 68 69 69 68 65 64 64 65 64 64 64 66 67 67 72 74 75 75 74 74 73
65 67 67 68 69 66 66 63 63 64 65 67 67 66 67 67 65 64 63 63 62 60 63 66 66 65 65 67 68 66 67 69 68 66 67 66 71 74 75 75 75 74 74
65 66 67 71 68 67 66 64 65 65 65 64 66 68 65 64 63 64 63 64 63 64 65 68 67 67 67 68 67 66 66 66 66 68 68 64 67 71 74 75 75 75 74
65 65 66 67 68 70 67 66 68 67 66 66 66 67 66 64 63 65 65 68 69 70 69 65 65 65 65 65 65 65 65 65 65 65 67 63 65 70 73 75 76 75 74
66 66 66 67 67 69 71 70 69 66 67 66 65 66 68 66 67 70 69 68 68 67 66 64 64 63 64 62 63 64 64 63 64 65 65 68 65 66 70 73 74 74 74
66 67 67 67 68 68 68 70 66 67 67 66 66 68 69 71 69 68 67 66 66 65 64 68 67 63 61 62 60 61 62 63 63 64 65 64 63 63 65 70 71 71 71
66 66 67 71 68 67 67 67 68 67 66 67 67 68 67 68 67 67 66 64 64 62 61 60 59 58 57 57 57 58 58 60 61 62 62 62 62 63 63 65 67 68 69
68 67 67 68 67 67 67 67 66 65 64 64 64 64 65 65 65 64 62 61 60 59 58 57 56 55 54 55 58 58 57 56 57 61 60 61 61 62 61 62 61 61 65
71 72 70 68 67 67 67 66 63 61 61 62 61 61 62 63 62 61 59 58 58 56 56 55 54 55 54 54 59 58 56 55 56 55 57 60 61 61 61 60 59 59 61
71 71 71 70 68 67 67 66 60 55 57 57 58 58 58 59 60 58 57 57 57 54 52 54 53 53 52 55 51 53 53 56 55 58 55 56 57 58 58 59 58 58 59
60 61 60 61 61 63 63 60 57 56 56 56 55 54 55 54 55 57 55 55 54 53 51 51 50 49 50 52 47 47 47 50 53 56 56 55 53 54 55 57 56 56 56
53 54 55 56 57 58 58 57 56 56 54 53 52 51 50 52 52 52 52 52 51 50 49 48 48 48 47 50 48 45 41 40 45 51 51 52 50 51 52 52 54 54 54
49 52 52 53 54 54 55 54 53 50 48 50 50 50 49 49 49 50 50 50 49 49 47 48 48 46 47 43 45 48 44 41 38 39 48 48 48 49 48 49 49 51 52
48 48 49 50 49 49 50 50 48 47 48 49 48 46 46 46 47 48 48 48 47 47 46 46 44 42 42 41 41 41 43 41 41 36 35 39 43 45 46 46 47 48 49
47 47 47 47 47 48 48 48 47 46 46 44 43 42 42 43 44 44 46 45 45 44 44 43 41 41 41 41 40 39 38 37 36 35 33 35 35 40 43 45 45 44 45

GFSSE_sfc_temp_222.txt.gz
Temp
66 69 74 76 76 76 75 76 76 76 76 76 76 76 76 75 75 75 75 75 76 76 76 76 75 75 74 73 73 73 73 72 72 73 73 74 74 74 73 72 71 69 73
68 70 73 75 76 75 75 75 75 75 76 75 76 76 76 76 75 75 75 75 75 75 75 75 74 74 73 72 72 72 72 72 71 71 71 71 73 74 73 72 72 70 73
69 70 72 73 74 74 74 75 75 75 76 75 76 76 75 75 75 75 75 74 75 75 75 74 73 73 72 72 72 72 72 72 71 71 71 64 67 74 74 73 73 72 72
70 71 72 72 74 74 74 74 74 74 75 76 76 75 75 75 75 75 74 74 74 74 74 74 73 72 72 72 72 72 72 72 70 69 64 66 69 74 74 74 73 72 71
69 71 71 72 73 74 74 74 74 74 75 75 75 75 75 74 74 75 74 74 74 74 73 73 73 72 71 71 71 71 71 71 69 66 63 63 64 72 74 74 72 72 71
68 70 70 72 73 74 74 74 74 74 74 74 74 74 74 73 73 73 73 73 73 73 73 72 72 71 71 71 71 71 71 70 67 61 62 66 65 73 74 74 73 73 72
67 68 70 71 72 73 73 73 73 73 73 73 73 73 73 73 72 72 72 72 72 72 72 71 71 70 70 70 70 70 70 68 63 62 62 63 64 73 74 74 73 73 73
67 68 69 67 69 71 72 72 72 73 72 72 72 72 72 72 72 72 72 72 71 71 71 71 70 70 70 70 70 70 68 67 64 61 62 62 66 73 75 74 74 74 73
68 67 66 67 67 67 68 69 70 70 71 71 71 71 70 70 70 70 70 71 71 71 70 70 70 70 70 70 70 68 67 65 61 62 65 63 67 73 75 74 74 73 73
66 66 65 65 65 64 64 65 66 67 68 68 68 67 66 67 67 68 67 69 70 70 70 70 70 70 70 70 68 67 65 64 62 62 63 63 69 73 75 75 74 74 73
65 65 65 64 64 63 63 63 63 65 65 65 65 64 63 64 65 65 64 67 69 69 70 70 70 69 68 66 66 64 63 63 62 63 63 66 70 74 75 75 74 74 73
62 63 65 64 63 63 68 62 63 65 64 64 64 64 64 64 64 65 61 64 66 66 68 69 69 68 64 63 63 64 64 67 63 64 68 67 71 74 75 75 74 74 74
64 65 65 64 64 63 63 61 61 62 62 62 64 64 64 64 62 62 61 62 62 60 62 64 66 64 64 64 64 64 65 66 63 67 66 66 70 73 74 75 75 74 74
62 64 65 65 65 63 62 61 62 62 62 62 63 65 63 62 62 62 62 62 62 65 66 63 63 67 65 65 64 63 63 63 62 63 63 63 66 72 74 75 75 75 74
62 63 64 65 65 65 63 63 63 63 63 63 64 65 64 62 62 63 65 68 68 68 66 63 63 63 62 62 62 62 62 62 62 62 62 60 64 69 73 74 74 74 73
64 63 64 65 66 66 64 66 68 63 64 63 63 64 65 64 63 68 68 67 65 66 64 62 62 60 59 59 60 60 60 60 60 61 61 61 62 64 68 72 72 72 72
65 65 65 66 66 66 69 69 67 64 65 63 64 68 67 68 67 66 65 64 64 63 61 60 59 58 57 58 57 58 59 59 59 59 60 60 60 61 64 66 67 68 69
65 65 66 69 66 65 65 67 65 63 62 65 64 65 65 65 65 64 62 61 62 59 58 56 55 55 54 54 53 55 55 56 57 58 59 59 60 60 61 62 63 64 66
66 65 65 66 65 66 65 63 62 63 62 62 62 62 63 62 63 61 59 59 57 56 54 54 53 52 52 53 55 55 54 53 55 58 57 58 58 57 57 59 59 59 62
66 66 66 66 65 65 63 60 61 60 59 59 58 58 60 60 60 59 58 57 57 55 54 52 51 52 51 51 55 55 52 53 53 52 53 56 55 55 54 54 53 54 58
65 65 65 68 65 64 61 61 57 54 55 54 55 55 55 56 56 56 55 55 55 52 52 50 49 49 50 49 49 50 51 52 55 51 52 50 51 52 52 52 51 51 52
58 59 60 60 62 60 59 58 57 54 53 53 53 52 52 52 53 53 52 51 49 51 50 49 49 48 47 47 42 45 43 47 50 50 49 49 47 48 49 50 49 50 50
51 53 55 55 57 57 57 56 54 54 52 51 50 48 49 50 50 51 50 50 49 49 47 47 45 44 45 44 44 41 38 37 40 47 46 45 45 45 45 46 48 48 47
48 51 50 51 53 53 57 55 52 49 46 48 48 47 47 47 48 48 48 47 47 47 45 46 46 44 44 39 41 45 41 38 34 35 43 43 43 44 44 44 46 46 44
47 47 48 48 48 49 49 49 48 46 47 47 46 44 44 44 45 46 46 45 45 45 44 43 41 39 40 38 37 37 37 38 37 32 32 36 41 43 44 43 42 42 42
46 46 46 46 46 48 47 48 47 46 44 43 42 41 40 40 40 40 42 43 43 43 40 39 39 38 37 36 36 36 35 33 32 32 30 32 33 38 42 42 40 39 39